This is the latest recevied weather packets stored in our database for station/object KB4MOX. If no packets are shown the sender has not sent any weather packets the latest 10 day(s).
| Time | Temp. | Humidity | Pressure | Rain* | Wind** | Luminosity | Snow |
|---|---|---|---|---|---|---|---|
| 1787957050 | 29.44° C | 73% | 1016.7 hPa | 0 mm | - | 116 W/m² | - |
| 1787956749 | 29.44° C | 73% | 1016.7 hPa | 0 mm | - | 126 W/m² | - |
| 1787956445 | 28.89° C | 74% | 1016.6 hPa | 0 mm | - | 140 W/m² | - |
| 1787956140 | 28.89° C | 75% | 1016.7 hPa | 0 mm | - | 128 W/m² | - |
| 1787955835 | 29.44° C | 74% | 1016.5 hPa | 0 mm | - | 88 W/m² | - |
| 1787955530 | 29.44° C | 73% | 1016.5 hPa | 0 mm | - | 100 W/m² | - |
| 1787955230 | 30° C | 72% | 1016.5 hPa | 0 mm | - | 112 W/m² | - |
| 1787954925 | 30.56° C | 71% | 1016.8 hPa | 0 mm | - | 118 W/m² | - |
| 1787954621 | 31.11° C | 69% | 1016.5 hPa | 0 mm | - | 167 W/m² | - |
| 1787954320 | 30° C | 70% | 1016.3 hPa | 0 mm | - | 286 W/m² | - |
| 1787954015 | 30° C | 72% | 1016.3 hPa | 0 mm | - | 244 W/m² | - |
| 1787953714 | 30° C | 73% | 1016.6 hPa | 0 mm | - | 158 W/m² | - |
| 1787953410 | 30° C | 71% | 1016.5 hPa | 0 mm | - | 134 W/m² | - |
| 1787953107 | 30° C | 71% | 1016.6 hPa | 0 mm | - | 180 W/m² | - |
| 1787952807 | 30° C | 70% | 1016.5 hPa | 0 mm | - | 172 W/m² | - |
| 1787952501 | 30° C | 70% | 1016.5 hPa | 0 mm | - | 194 W/m² | - |
| 1787952199 | 30° C | 71% | 1016.7 hPa | 0 mm | - | 219 W/m² | - |
| 1787951896 | 30° C | 70% | 1016.4 hPa | 0 mm | - | 188 W/m² | - |
| 1787951592 | 30° C | 70% | 1016.1 hPa | 0 mm | - | 261 W/m² | - |
| 1787951288 | 30.56° C | 69% | 1016.5 hPa | 0 mm | - | 146 W/m² | - |
| 1787950984 | 30.56° C | 68% | 1016.4 hPa | 0 mm | - | 360 W/m² | - |
| 1787950679 | 31.11° C | 69% | 1016.4 hPa | 0 mm | - | 279 W/m² | - |
| 1787950375 | 31.11° C | 68% | 1016.6 hPa | 0 mm | - | 253 W/m² | - |
| 1787950071 | 30.56° C | 71% | 1016.4 hPa | 0 mm | - | 489 W/m² | - |
| 1787949766 | 30.56° C | 70% | 1016.4 hPa | 0 mm | - | 397 W/m² | - |
* Rain latest hour (hover to see other rain measurements)
** Current wind speed in m/s (hover to see current wind gust speed)